When you browse on this site, cookies collect data to enhance your experience and personalize the content and advertising you see.
Visit our Privacy Policy to learn more. By continuing to use the site, you agree to this use of cookies and data.

Hourly Weather Newcastle

Today, 23 September, Wednesday

Time Temperature Precipitation Wind Pressure Humidity
00:00 +14°C° 0 mm 3 mps 759 mmHg 64%
01:00 +14°C° 0 mm 3 mps 759 mmHg 66%
02:00 +13°C° 0 mm 3 mps 759 mmHg 68%
03:00 +12°C° 0 mm 4 mps 759 mmHg 70%
04:00 +12°C° 0 mm 3 mps 759 mmHg 74%
05:00 +12°C° 0 mm 4 mps 759 mmHg 71%
06:00 +13°C° 0 mm 4 mps 759 mmHg 68%
07:00 +14°C° 0 mm 5 mps 760 mmHg 65%
08:00 +16°C° 0 mm 5 mps 760 mmHg 57%
09:00 +19°C° 0 mm 4 mps 759 mmHg 49%
10:00 +21°C° 0 mm 5 mps 759 mmHg 39%
11:00 +22°C° 0 mm 5 mps 758 mmHg 36%
12:00 +23°C° 0 mm 5 mps 758 mmHg 33%
13:00 +25°C° 0 mm 5 mps 757 mmHg 30%
14:00 +25°C° 0 mm 5 mps 757 mmHg 32%
15:00 +23°C° 0 mm 5 mps 757 mmHg 34%
16:00 +23°C° 0 mm 5 mps 757 mmHg 36%
17:00 +21°C° 0 mm 5 mps 758 mmHg 41%
18:00 +19°C° 0 mm 5 mps 758 mmHg 47%
19:00 +17°C° 0 mm 4 mps 759 mmHg 52%
20:00 +15°C° 0 mm 5 mps 759 mmHg 55%
21:00 +14°C° 0 mm 5 mps 760 mmHg 58%
22:00 +13°C° 0 mm 5 mps 760 mmHg 61%
23:00 +13°C° 0 mm 5 mps 760 mmHg 63%

Tomorrow, 24 September, Thursday

Time Temperature Precipitation Wind Pressure Humidity
00:00 +12°C° 0 mm 5 mps 760 mmHg 66%
01:00 +10°C° 0 mm 5 mps 760 mmHg 69%
02:00 +10°C° 0 mm 5 mps 759 mmHg 70%
03:00 +9°C° 0 mm 5 mps 759 mmHg 72%
04:00 +9°C° 0 mm 5 mps 759 mmHg 73%
05:00 +9°C° 0 mm 5 mps 760 mmHg 70%
06:00 +10°C° 0 mm 5 mps 760 mmHg 67%
07:00 +11°C° 0 mm 6 mps 760 mmHg 63%
08:00 +14°C° 0 mm 6 mps 760 mmHg 57%
09:00 +16°C° 0 mm 6 mps 760 mmHg 51%
10:00 +19°C° 0 mm 6 mps 760 mmHg 44%
11:00 +20°C° 0 mm 6 mps 759 mmHg 40%
12:00 +21°C° 0 mm 5 mps 759 mmHg 36%
13:00 +22°C° 0 mm 5 mps 758 mmHg 32%
14:00 +22°C° 0 mm 4 mps 758 mmHg 32%
15:00 +21°C° 0 mm 4 mps 757 mmHg 33%
16:00 +21°C° 0 mm 4 mps 757 mmHg 34%
17:00 +20°C° 0 mm 3 mps 758 mmHg 38%
18:00 +18°C° 0 mm 3 mps 758 mmHg 43%
19:00 +16°C° 0 mm 2 mps 758 mmHg 48%
20:00 +14°C° 0 mm 3 mps 759 mmHg 52%
21:00 +13°C° 0 mm 3 mps 759 mmHg 56%
22:00 +11°C° 0 mm 3 mps 760 mmHg 60%
23:00 +11°C° 0 mm 3 mps 759 mmHg 64%

Day after tomorrow, 25 September, Friday

Time Temperature Precipitation Wind Pressure Humidity
00:00 +10°C° 0 mm 3 mps 759 mmHg 67%
01:00 +10°C° 0 mm 2 mps 758 mmHg 71%
02:00 +9°C° 0 mm 2 mps 758 mmHg 73%
03:00 +9°C° 0 mm 3 mps 758 mmHg 76%
04:00 +8°C° 0 mm 3 mps 757 mmHg 78%
05:00 +9°C° 0 mm 3 mps 757 mmHg 74%
06:00 +10°C° 0 mm 3 mps 757 mmHg 71%
07:00 +11°C° 0 mm 3 mps 756 mmHg 67%
08:00 +14°C° 0 mm 4 mps 755 mmHg 56%
09:00 +17°C° 0 mm 5 mps 755 mmHg 45%
10:00 +21°C° 0 mm 6 mps 754 mmHg 35%
11:00 +22°C° 0 mm 6 mps 753 mmHg 33%
12:00 +23°C° 0 mm 7 mps 752 mmHg 31%
13:00 +24°C° 0 mm 8 mps 751 mmHg 29%
14:00 +23°C° 0 mm 8 mps 750 mmHg 32%
15:00 +22°C° 0 mm 7 mps 750 mmHg 34%
16:00 +22°C° 0 mm 7 mps 750 mmHg 37%
17:00 +17°C° 0.7 mm 7 mps 751 mmHg 54%
18:00 +12°C° 0.7 mm 7 mps 752 mmHg 71%
19:00 +6°C° 0.7 mm 7 mps 753 mmHg 88%
20:00 +6°C° 0 mm 7 mps 754 mmHg 86%
21:00 +6°C° 0 mm 7 mps 754 mmHg 84%
22:00 +6°C° 0 mm 7 mps 755 mmHg 82%
23:00 +6°C° 0 mm 8 mps 755 mmHg 75%

26 September, Saturday

Time Temperature Precipitation Wind Pressure Humidity
00:00 +6°C° 0 mm 9 mps 755 mmHg 68%
01:00 +7°C° 0 mm 9 mps 755 mmHg 62%
02:00 +7°C° 0 mm 9 mps 755 mmHg 60%
03:00 +6°C° 0 mm 8 mps 755 mmHg 59%
04:00 +6°C° 0 mm 8 mps 756 mmHg 58%
05:00 +7°C° 0 mm 8 mps 756 mmHg 57%
06:00 +7°C° 0 mm 8 mps 757 mmHg 57%
07:00 +7°C° 0 mm 9 mps 757 mmHg 56%
08:00 +10°C° 0 mm 9 mps 758 mmHg 50%
09:00 +12°C° 0 mm 9 mps 758 mmHg 43%
10:00 +13°C° 0 mm 8 mps 758 mmHg 36%
11:00 +15°C° 0 mm 7 mps 758 mmHg 34%
12:00 +16°C° 0 mm 6 mps 758 mmHg 32%
13:00 +19°C° 0 mm 5 mps 758 mmHg 30%
14:00 +19°C° 0 mm 5 mps 759 mmHg 30%
15:00 +19°C° 0 mm 5 mps 759 mmHg 31%
16:00 +19°C° 0 mm 5 mps 759 mmHg 31%
17:00 +15°C° 0 mm 5 mps 760 mmHg 37%
18:00 +13°C° 0 mm 5 mps 761 mmHg 42%
19:00 +10°C° 0 mm 6 mps 761 mmHg 47%
20:00 +10°C° 0 mm 5 mps 762 mmHg 52%
21:00 +9°C° 0 mm 5 mps 763 mmHg 57%
22:00 +8°C° 0 mm 5 mps 763 mmHg 62%
23:00 +7°C° 0 mm 5 mps 763 mmHg 66%

27 September, Sunday

Time Temperature Precipitation Wind Pressure Humidity
00:00 +7°C° 0 mm 5 mps 763 mmHg 69%
01:00 +6°C° 0 mm 5 mps 763 mmHg 73%
02:00 +6°C° 0 mm 4 mps 764 mmHg 73%
03:00 +5°C° 0 mm 4 mps 764 mmHg 74%
04:00 +5°C° 0 mm 4 mps 764 mmHg 75%
05:00 +6°C° 0 mm 4 mps 764 mmHg 72%
06:00 +6°C° 0 mm 4 mps 765 mmHg 69%
07:00 +7°C° 0 mm 4 mps 766 mmHg 66%
08:00 +10°C° 0 mm 4 mps 766 mmHg 57%
09:00 +13°C° 0 mm 4 mps 766 mmHg 49%
10:00 +15°C° 0 mm 4 mps 766 mmHg 41%
11:00 +17°C° 0 mm 4 mps 766 mmHg 42%
12:00 +16°C° 0 mm 5 mps 766 mmHg 43%
13:00 +16°C° 0 mm 5 mps 766 mmHg 44%
14:00 +16°C° 0 mm 5 mps 766 mmHg 48%
15:00 +15°C° 0 mm 5 mps 766 mmHg 52%
16:00 +15°C° 0 mm 6 mps 766 mmHg 56%
17:00 +13°C° 0 mm 5 mps 766 mmHg 61%
18:00 +12°C° 0 mm 4 mps 767 mmHg 66%
19:00 +10°C° 0 mm 3 mps 768 mmHg 72%
20:00 +10°C° 0 mm 3 mps 768 mmHg 74%
21:00 +9°C° 0 mm 3 mps 769 mmHg 76%
22:00 +9°C° 0 mm 2 mps 769 mmHg 78%
23:00 +8°C° 0 mm 2 mps 769 mmHg 78%

28 September, Monday

Time Temperature Precipitation Wind Pressure Humidity
00:00 +8°C° 0 mm 2 mps 769 mmHg 79%
01:00 +8°C° 0 mm 2 mps 769 mmHg 80%
02:00 +8°C° 0 mm 2 mps 769 mmHg 77%
03:00 +9°C° 0 mm 2 mps 769 mmHg 75%
04:00 +9°C° 0 mm 2 mps 769 mmHg 73%
05:00 +10°C° 0 mm 2 mps 769 mmHg 72%
06:00 +11°C° 0 mm 1 mps 770 mmHg 72%
07:00 +11°C° 0 mm 1 mps 770 mmHg 71%
08:00 +13°C° 0 mm 1 mps 770 mmHg 63%
09:00 +16°C° 0 mm 1 mps 770 mmHg 54%
10:00 +19°C° 0 mm 1 mps 769 mmHg 46%
11:00 +18°C° 0 mm 2 mps 769 mmHg 47%
12:00 +18°C° 0 mm 2 mps 769 mmHg 48%
13:00 +17°C° 0 mm 3 mps 768 mmHg 49%
14:00 +17°C° 0 mm 3 mps 768 mmHg 49%
15:00 +17°C° 0 mm 3 mps 767 mmHg 50%
16:00 +17°C° 0 mm 3 mps 767 mmHg 51%
17:00 +14°C° 0 mm 3 mps 767 mmHg 58%
18:00 +12°C° 0 mm 3 mps 768 mmHg 65%
19:00 +12°C° 0 mm 2 mps 768 mmHg 71%
20:00 +12°C° 0 mm 2 mps 768 mmHg 73%
21:00 +10°C° 0 mm 2 mps 769 mmHg 74%
22:00 +10°C° 0 mm 2 mps 769 mmHg 76%
23:00 +10°C° 0 mm 2 mps 769 mmHg 75%
Show more